Location: Unspecified
(47.9110°N, 14.3980°E)
Time: 01:35:12
(UTC+00:00)

Cosmos 1271 Rocket - Pass Details

Date: 06 August 2020
Orbit: 499 x 544 km, 81.2° (Epoch: 25 September)

Event Time Altitude Azimuth Distance (km) Brightness Sun altitude
Rises 23:02:56 0° 347° (NNW) 2,609 7.6 -25.7°
Reaches altitude 10° 23:05:03 10° 347° (NNW) 1,723 6.3 -25.7°
Enters shadow 23:07:45 45° 340° (NNW) 704 3.7 -25.7°
